Regional Weather Roundup
Issued by NWS Jackson, KY

Home | Current Version | Previous Version | Text Only | Print | Product List | Glossary Off
Versions: 1 2 3 4 5 6 7 8 9 10 11 12 13 14 15 16 17 18 19 20 21 22 23 24 25 26 27 28 29 30 31 32 33 34 35 36 37 38 39 40 41 42 43 44 45 46 47 48 49 50

118
ASUS43 KJKL 240610
RWRJKL

EAST KENTUCKY HOURLY WEATHER ROUNDUP
NATIONAL WEATHER SERVICE JACKSON KY
200 AM EDT WED MAY 24 2017

NOTE: "FAIR" INDICATES FEW OR NO CLOUDS BELOW 12,000 FEET WITH
NO SIGNIFICANT WEATHER AND/OR OBSTRUCTIONS TO VISIBILITY.

* THESE REPORTS ARE NOT UNDER NWS QUALITY CONTROL AND MAY NOT
  REPORT WEATHER SUCH AS PRECIPITATION AND FOG.

KYZ079-080-083-085-087-088-110-112-115-119-120-240700
...EASTERN KENTUCKY...

CITY           SKY/WX    TMP DP  RH WIND       PRES   REMARKS
JACKSON        CLOUDY    60  59  96 CALM      29.64F FOG
6HR MIN TEMP:  59; 6HR MAX TEMP:  62; 6HR PCP:  0.06;

LONDON         FOG       56  55  97 CALM      29.65F VSB 1/4
6HR MIN TEMP:  56; 6HR MAX TEMP:  62;

SOMERSET*      PTCLDY    55  55 100 CALM      29.65F FOG
MONTICELLO*    CLOUDY    60  59  96 VRB6      29.65F
6HR MIN TEMP:  59; 6HR MAX TEMP:  67; 6HR PCP: TRACE;

WILLIAMSBURG*  CLOUDY    57  57 100 CALM      29.65F
MIDDLESBORO*   CLOUDY    61  61 100 CALM      29.66F
6HR MIN TEMP:  61; 6HR MAX TEMP:  64; 6HR PCP:  0.02;

HARLAN APT*    CLOUDY    59  57  94 CALM      29.66F
PIKE CO APT*   LGT RAIN  59  59 100 CALM      29.63F
BIG SANDY APT* CLOUDY    60  60 100 CALM      29.63F
6HR MIN TEMP:  60; 6HR MAX TEMP:  62;

MOREHEAD APT*  FOG       61  59  94 CALM      29.65F VSB<1/4
ASHLAND*       CLOUDY    63  61  94 CALM      29.61F
$$

KYZ035-036-041-042-044-050-067-078-099-240700
...CENTRAL KENTUCKY...

CITY           SKY/WX    TMP DP  RH WIND       PRES   REMARKS
MT STERLING*   FOG       57  57 100 CALM      29.64F VSB 1
FLEMING/MASON* MOCLDY    60  59  99 SE3       29.63F
DANVILLE*      MOCLDY    59  59 100 SW3       29.64F
LEXINGTON      MOCLDY    59  57  93 S6        29.63F
6HR MIN TEMP:  59; 6HR MAX TEMP:  67; 6HR PCP:  0.04;

FRANKFORT      MOCLDY    61  56  83 S6        29.61F
6HR MIN TEMP:  61; 6HR MAX TEMP:  70;

LOUISVILLE     CLOUDY    67  53  61 CALM      29.59F
6HR MIN TEMP:  67; 6HR MAX TEMP:  75;

LEBANON*       CLOUDY    63  61  94 SE6       29.62F
GLASGOW*       CLOUDY    61  61 100 CALM      29.62F
BOWLING GREEN  CLOUDY    66  57  72 S3        29.62F
6HR MIN TEMP:  65; 6HR MAX TEMP:  75;

$$

KYZ091>093-OHZ055-061-077-WVZ005-015-034-035-042-240700
...SOUTHERN OHIO/WEST VIRGINIA...

CITY           SKY/WX    TMP DP  RH WIND       PRES   REMARKS
COVINGTON      CLOUDY    63  58  83 S6        29.61F
COLUMBUS       CLOUDY    63  60  90 SE5       29.64F
DAYTON         CLOUDY    63  55  75 S5        29.63F
WILMINGTON     CLOUDY    61  60  97 SE6       29.63F
HUNTINGTON     CLOUDY    61  59  93 E5        29.62F
CHARLESTON     CLOUDY    60  57  89 NE3       29.63F
PINEVILLE*     RAIN      58  57  95 MISG      29.71F
BECKLEY        CLOUDY    55  52  89 SE10      29.70F
BLUEFIELD      CLOUDY    53  52  96 CALM      29.71F
LOGAN CO APT*  CLOUDY    59  57  94 CALM      29.64F
$$

VAZ002-007-008-TNZ017-027-036-066-071-240700
...SOUTHWEST VIRGINIA/EAST TENNESSEE...

CITY           SKY/WX    TMP DP  RH WIND       PRES   REMARKS
WISE*          CLOUDY    61  61 100 W5        29.68F
JONESVILLE*    CLOUDY    61  61 100 CALM      29.67F
ABINGDON*      CLOUDY    60  60  99 SE6       29.68F
BRISTOL        LGT RAIN  63  62  97 SE6       29.64F
MORRISTOWN*    MOCLDY    64  64 100 W8        29.65S
SEVIERVILLE*   CLOUDY    59  57  94 S5        29.65F
KNOXVILLE      CLOUDY    62  59  90 W3        29.65F
LAFOLLETTE*    CLOUDY    61  61 100 CALM      29.67F
OAK RIDGE      LGT RAIN  65  62  90 VRB3      29.66F FOG
CROSSVILLE     MOCLDY    60  59  96 CALM      29.67F FOG
NASHVILLE      CLOUDY    66  60  81 CALM      29.63F
$$

...KEY TO REMARKS...
VSB - VISIBILITY IN MILES
WCI - WIND CHILL INDEX
HX  - HEAT INDEX

$$




USA.gov is the U.S. government's official web portal to all federal, state and local government web resources and services.